This is the latest recevied weather packets stored in our database for station/object NC4M. If no packets are shown the sender has not sent any weather packets the latest 10 day(s).
| Time | Temp. | Humidity | Pressure | Rain* | Wind** | Luminosity | Snow |
|---|---|---|---|---|---|---|---|
| 1787862746 | 28.89° C | 57% | 1018.3 hPa | 0 mm | - | 624 W/m² | - |
| 1787862446 | 28.33° C | 57% | 1018.2 hPa | 0 mm | - | 432 W/m² | - |
| 1787862141 | 28.89° C | 53% | 1018.3 hPa | 0 mm | - | 81 W/m² | - |
| 1787861836 | 28.89° C | 50% | 1018.2 hPa | 0 mm | - | 438 W/m² | - |
| 1787861534 | 28.89° C | 50% | 1018.3 hPa | 0 mm | - | 196 W/m² | - |
| 1787861229 | 28.89° C | 51% | 1018.6 hPa | 0 mm | - | 145 W/m² | - |
| 1787860928 | 28.89° C | 53% | 1018.6 hPa | 0 mm | - | 128 W/m² | - |
| 1787860623 | 28.33° C | 53% | 1018.7 hPa | 0 mm | - | 109 W/m² | - |
| 1787860318 | 28.89° C | 50% | 1018.6 hPa | 0 mm | - | 660 W/m² | - |
| 1787860013 | 28.89° C | 49% | 1018.6 hPa | 0 mm | - | 207 W/m² | - |
| 1787859709 | 27.78° C | 52% | 1018.6 hPa | 0 mm | - | 104 W/m² | - |
| 1787859408 | 27.78° C | 59% | 1018.7 hPa | 0 mm | - | 112 W/m² | - |
| 1787859104 | 27.78° C | 52% | 1018.8 hPa | 0 mm | - | 107 W/m² | - |
| 1787858800 | 28.33° C | 51% | 1018.8 hPa | 0 mm | - | 162 W/m² | - |
| 1787858496 | 28.33° C | 50% | 1018.8 hPa | 0 mm | - | 533 W/m² | - |
| 1787858195 | 28.33° C | 52% | 1018.9 hPa | 0 mm | - | 114 W/m² | - |
| 1787857891 | 28.33° C | 50% | 1018.7 hPa | 0 mm | - | 130 W/m² | - |
| 1787857587 | 28.89° C | 52% | 1018.8 hPa | 0 mm | - | 168 W/m² | - |
| 1787857287 | 28.33° C | 57% | 1018.9 hPa | 0 mm | - | 719 W/m² | - |
| 1787856986 | 28.89° C | 52% | 1019 hPa | 0 mm | - | 227 W/m² | - |
| 1787856680 | 28.89° C | 55% | 1018.8 hPa | 0 mm | - | 135 W/m² | - |
| 1787856380 | 28.89° C | 51% | 1018.9 hPa | 0 mm | - | 433 W/m² | - |
| 1787856076 | 28.89° C | 48% | 1018.9 hPa | 0 mm | - | 141 W/m² | - |
| 1787855775 | 28.33° C | 50% | 1019.3 hPa | 0 mm | - | 252 W/m² | - |
| 1787855470 | 27.78° C | 51% | 1019.1 hPa | 0 mm | - | 106 W/m² | - |
* Rain latest hour (hover to see other rain measurements)
** Current wind speed in m/s (hover to see current wind gust speed)